Location: Taukkyan
(23.1052°N, 94.0030°E)
Time: 20:27:51
(UTC+00:00)

DELTA 2 R/B (1) - Visible Passes

Search period start: 25 October 2020 00:00
Search period end: 04 November 2020 00:00
Orbit: 790 x 803 km, 39.6° (Epoch: 25 October)

Date Brightness Start Highest point End Pass type
(mag) Time Alt. Az. Time Alt. Az. Time Alt. Az.
25 Oct 6.2 20:58:36 12° NNE 20:58:36 12° NNE 20:59:15 10° NE visible
25 Oct 5.0 22:39:23 11° NW 22:43:55 30° NNE 22:48:47 10° E visible
26 Oct 5.1 22:10:19 20° NNW 22:12:56 28° NNE 22:17:42 10° E visible
27 Oct 5.1 21:41:17 25° N 21:41:57 26° NNE 21:46:35 10° ENE visible
28 Oct 5.5 21:12:19 22° NE 21:12:19 22° NE 21:15:28 10° ENE visible
28 Oct 3.6 22:53:06 15° NW 22:57:51 86° NE 23:03:29 10° SE visible
29 Oct 6.0 13:26:24 10° S 13:26:36 11° S 13:26:36 11° S visible
29 Oct 6.3 20:43:24 14° ENE 20:43:24 14° ENE 20:44:20 10° ENE visible
29 Oct 3.6 22:24:12 31° NW 22:26:56 78° NE 22:32:32 10° ESE visible
30 Oct 5.4 12:55:45 10° S 12:57:51 18° SSE 12:57:51 18° SSE visible
30 Oct 3.6 21:55:21 64° NNW 21:56:00 71° NNE 22:01:35 10° ESE visible
31 Oct 5.1 12:25:10 10° S 12:29:02 19° SE 12:29:06 19° SE visible
31 Oct 6.3 14:09:34 10° WSW 14:09:55 12° WSW 14:09:55 12° WSW visible
31 Oct 4.5 21:26:33 46° E 21:26:33 46° E 21:30:37 10° ESE visible
31 Oct 4.8 23:07:20 12° W 23:11:14 25° SW 23:15:45 10° SSE visible
01 Nov 5.2 11:54:39 10° S 11:58:09 17° SE 12:00:21 14° ESE visible
01 Nov 5.3 13:38:39 10° SW 13:41:08 28° WSW 13:41:08 28° WSW visible
01 Nov 5.8 20:57:46 21° ESE 20:57:46 21° ESE 20:59:38 10° ESE visible
01 Nov 4.7 22:38:35 23° WSW 22:40:21 28° SW 22:45:03 10° SSE visible
02 Nov 5.4 11:24:12 10° S 11:27:16 15° SE 11:30:20 10° ESE visible
02 Nov 3.8 13:07:44 10° SW 13:12:20 63° SW 13:12:20 63° SW visible
02 Nov 4.5 22:09:50 31° SSW 22:09:50 31° SSW 22:14:21 10° SSE visible
03 Nov 3.4 12:36:50 10° SW 12:42:21 78° SE 12:43:29 57° ENE visible
03 Nov 5.2 21:41:05 24° S 21:41:05 24° S 21:43:36 10° SSE visible
